Terug naar catalogus

IRIDIUM 33 DEB

ActiefPO
NORAD 37548·DEBRIS·🇺🇸 United States

Gelanceerd Sep 14, 1997 vanaf Baikonur Cosmodrome

Loading…

Volgende Passages (komende 24 uur)

TLE

VersSource: Space-Track

Epoch: Sep 11, 2026, 19:18 UTC

1 37548U 97051XH  26254.80428610  .00001611  00000-0  38372-3 0  9992
2 37548  86.3469 284.3537 0023521   3.6471 356.4902 14.53050322694958

Volg IRIDIUM 33 DEB in realtime met AllMySat

Download on the App Store